Location: Wavehorne
(51.0500°N, 0.8333°E)
Time: 16:42:04
(UTC+00:00)

Cosmos 1943 Rocket - Pass Details

Date: 20 June 2021
Orbit: 813 x 843 km, 71.0° (Epoch: 03 August)

Event Time Altitude Azimuth Distance (km) Brightness Sun altitude
Rises 01:20:22 0° 320° (NW) 3,347 5.8 -13.3°
Reaches altitude 10° 01:23:27 10° 303° (WNW) 2,411 4.7 -13.2°
Maximum altitude 01:27:09 19° 260° (W) 1,872 3.7 -13.0°
Enters shadow 01:29:35 14° 229° (SW) 2,117 3.8 -12.8°
